Tracking 32412 objects as of 6-Dec-2025
HD Live streaming from Space Station
objects crossing your sky now

CZ-6A DEB

Track CZ-6A DEB now!
10-day predictions


NORAD ID: 56671
Int'l Code: 2022-151AGX
Perigee: 831.6 km
Apogee: 1,008.8 km
Inclination: 98.9 °
Period: 103.3 minutes
Semi major axis: 7291 km
RCS: Unknown
Launch date: November 11, 2022
Source: People's Republic of China (PRC)
Launch site: Taiyaun Space Center, China (TSC)

Note: This is SATELLITE DEBRIS
Your satellite tracking list
Your tracking list is empty




NASA's NSSDC Master Catalog

Two Line Element Set (TLE):
1 56671U 22151AGX 25339.16110114  .00001276  00000-0  93063-3 0  9993
2 56671  98.9029 311.6494 0121515 253.7751 105.0012 13.94458060133249
Source of the keplerian elements: AFSPC